Location: Liscomb Game Sanctuary
(45.1633°N, 62.5575°W)
Time: 16:16:38
(UTC-04:00)

Amateur Radio Satellites - All Passes

Search period start: 04 March 2015 15:46
Search period end: 05 March 2015 15:46
Location: Liscomb Game Sanctuary, 45.1633°N, 62.5575°W

Satellite Date Start Highest point End Downlink Frequencies (MHz)
Time Altitude Azimuth
ISS 04 Mar 15:47:21 15:49:08 14° 226° (SW) 15:50:51 145.825
SWISSCUBE 04 Mar 15:47:26 15:48:44 11° 303° (WNW) 15:49:48 437.505
CUTE-I 04 Mar 15:50:16 15:52:23 13° 56° (NE) 15:54:46 437.470
AO-7 04 Mar 16:18:57 16:26:46 42° 262° (W) 16:34:31 29.400- 29.500
YUBILEINY 04 Mar 16:23:24 16:32:10 86° 279° (W) 16:41:02 435.215
BEESAT 3 04 Mar 16:51:59 16:56:00 57° 121° (ESE) 17:00:06 437.485
MOZHAYETS 4 04 Mar 16:58:02 17:02:40 69° 101° (ESE) 17:07:19
JAS-2 04 Mar 17:06:49 17:11:19 23° 272° (W) 17:16:04 435.910
VERMONT LUNAR 04 Mar 17:08:46 17:11:32 22° 161° (SSE) 17:14:20 437.305
AIST 1 04 Mar 17:16:47 17:20:34 28° 72° (ENE) 17:24:23
M-CUBED/EXP-1 PRIME 04 Mar 17:17:13 17:21:28 72° 290° (WNW) 17:26:02 437.505
AUBIESAT-1 04 Mar 17:17:26 17:21:43 79° 290° (WNW) 17:26:18 437.475
Cubesat XI-IV 04 Mar 17:17:59 17:23:17 65° 73° (ENE) 17:28:40 437.490
BEESAT 2 04 Mar 17:19:41 17:23:49 88° 303° (WNW) 17:28:01 435.950
CUTE-I 04 Mar 17:26:18 17:31:40 76° 74° (ENE) 17:37:05 437.470
PHONESAT 2.4 04 Mar 17:27:18 17:29:53 19° 157° (SSE) 17:32:30 2401.200-2431.200
O/OREOS (USA 219) 04 Mar 17:27:35 17:30:58 20° 50° (NE) 17:34:26 437.305
CUBESAT XI-V 04 Mar 17:27:41 17:29:26 12° 86° (E) 17:31:27 437.345
AIST 2 04 Mar 17:28:28 17:32:32 46° 119° (ESE) 17:36:41 435.215
HO-68 04 Mar 17:34:16 17:35:52 11° 44° (NE) 17:37:51 435.675
STRAND 1 04 Mar 18:20:47 18:24:59 25° 93° (E) 18:29:16 437.568
YUBILEINY 04 Mar 18:24:11 18:30:35 21° 303° (WNW) 18:36:41 435.215
BEESAT 3 04 Mar 18:31:15 18:34:27 21° 321° (NW) 18:37:37 437.485
MOZHAYETS 4 04 Mar 18:36:40 18:39:26 15° 298° (WNW) 18:42:01
VERMONT LUNAR 04 Mar 18:45:44 18:49:00 38° 178° (S) 18:52:17 437.305
GOMX 1 04 Mar 18:46:36 18:50:05 19° 64° (ENE) 18:53:35 467.674
BRITE-PL 04 Mar 18:51:05 18:55:48 30° 67° (ENE) 19:00:23 437.365/2234.400
AIST 1 04 Mar 18:54:24 18:58:13 28° 270° (W) 19:01:58
PRISM 04 Mar 18:54:30 18:58:46 89° 101° (E) 19:03:00 437.425
AUBIESAT-1 04 Mar 18:54:50 18:56:03 11° 305° (NW) 18:57:06 437.475
BEESAT 2 04 Mar 19:00:04 19:02:39 16° 326° (NW) 19:05:10 435.950
Cubesat XI-IV 04 Mar 19:00:13 19:03:57 18° 271° (W) 19:07:32 437.490
CUBESAT XI-V 04 Mar 19:02:50 19:07:35 79° 285° (WNW) 19:12:17 437.345
PHONESAT 2.4 04 Mar 19:04:27 19:07:50 37° 173° (S) 19:11:14 2401.200-2431.200
O/OREOS (USA 219) 04 Mar 19:06:16 19:10:47 54° 250° (WSW) 19:15:14 437.305
AIST 2 04 Mar 19:07:44 19:11:21 25° 319° (NW) 19:14:58 435.215
CUTE-I 04 Mar 19:09:11 19:12:27 16° 273° (W) 19:15:29 437.470
DOVE 4 04 Mar 19:11:15 19:14:53 21° 65° (ENE) 19:18:31 437.250
PCSat 04 Mar 19:12:36 19:16:11 19° 107° (ESE) 19:19:56 145.827
HO-68 04 Mar 19:15:18 19:22:02 48° 65° (ENE) 19:28:51 435.675
SEEDS 04 Mar 19:16:53 19:20:01 21° 66° (ENE) 19:23:13 437.485
CANX-2 04 Mar 19:22:53 19:26:34 30° 69° (ENE) 19:30:18 2200.000
DELFI C3 04 Mar 19:39:59 19:40:33 10° 61° (ENE) 19:41:20 145.870
CUTE 1.7 + AOD 2 04 Mar 19:40:49 19:44:48 42° 71° (ENE) 19:48:49 437.475
STRAND 1 04 Mar 19:59:31 20:04:25 44° 291° (WNW) 20:09:15 437.568
UWE-3 04 Mar 20:05:32 20:08:17 17° 65° (ENE) 20:11:07 435.000/436.395/437.385
AAUSAT CUBESAT 2 04 Mar 20:16:26 20:20:31 64° 74° (ENE) 20:24:39 437.432
COMPASS 1 04 Mar 20:20:42 20:24:51 82° 75° (ENE) 20:29:02 437.405
GOMX 1 04 Mar 20:22:30 20:27:50 67° 260° (W) 20:32:52 467.674
VERMONT LUNAR 04 Mar 20:23:29 20:26:32 28° 194° (SSW) 20:29:35 437.305
Oscar 11 04 Mar 20:24:51 20:28:51 39° 71° (ENE) 20:32:53 145.826/435.025
BRITE-PL 04 Mar 20:28:48 20:34:10 44° 263° (W) 20:39:15 437.365/2234.400
PRISM 04 Mar 20:32:33 20:33:41 11° 300° (WNW) 20:34:34 437.425
GONETS M04 04 Mar 20:38:01 20:45:08 31° 84° (E) 20:52:29
CINEMA 3 04 Mar 20:39:27 20:44:10 75° 76° (ENE) 20:48:42 145.822/145.860
50 SAT 04 Mar 20:39:31 20:40:21 11° 62° (ENE) 20:41:22 437.505
PHONESAT 2.4 04 Mar 20:42:36 20:45:56 34° 190° (S) 20:49:16 2401.200-2431.200
CUBESAT XI-V 04 Mar 20:43:03 20:44:18 11° 302° (WNW) 20:45:18 437.345
CUBEBUG 2 04 Mar 20:45:53 20:50:12 49° 72° (ENE) 20:54:24 437.445
DOVE 4 04 Mar 20:47:23 20:52:23 54° 261° (W) 20:57:08 437.250
SEEDS 04 Mar 20:51:43 20:55:38 38° 263° (W) 20:59:33 437.485
DX 1 04 Mar 20:52:47 20:56:53 40° 70° (ENE) 21:01:02 434.975-435.025
PCSat 04 Mar 20:53:41 20:59:06 70° 304° (WNW) 21:04:33 145.827
CANX-2 04 Mar 20:58:59 21:02:33 25° 266° (W) 21:06:03 2200.000
HUMSAT D 04 Mar 21:02:36 21:06:06 27° 68° (ENE) 21:09:38 437.325/437.525
HO-68 04 Mar 21:03:22 21:09:57 37° 264° (W) 21:16:28 435.675
CUBEBUG 1 04 Mar 21:05:13 21:06:30 11° 60° (ENE) 21:07:59 437.445
AISAT 04 Mar 21:06:42 21:10:21 25° 66° (ENE) 21:14:06 437.250
DELFI C3 04 Mar 21:11:10 21:15:12 83° 257° (WSW) 21:19:16 145.870
FUNcube-1 04 Mar 21:13:51 21:18:09 65° 75° (ENE) 21:22:23 145.935
VELOX 1 04 Mar 21:14:55 21:18:46 29° 67° (ENE) 21:22:41 145.980
ZACube-1 04 Mar 21:15:54 21:20:14 70° 75° (ENE) 21:24:29 437.345
CUTE 1.7 + AOD 2 04 Mar 21:17:58 21:20:59 18° 269° (W) 21:23:53 437.475
UKube-1 04 Mar 21:19:14 21:23:35 73° 73° (ENE) 21:27:58 .
RS-15 04 Mar 21:36:28 21:44:33 26° 104° (ESE) 21:53:09 29.354- 29.394
ESTCUBE 1 04 Mar 21:39:00 21:42:43 26° 66° (ENE) 21:46:31 437.505/2401.250
UWE-3 04 Mar 21:40:11 21:44:30 53° 260° (W) 21:48:45 435.000/436.395/437.385
UNISAT 6 04 Mar 21:46:34 21:48:58 15° 89° (E) 21:51:32 437.425
AAUSAT CUBESAT 2 04 Mar 21:54:56 21:56:41 12° 273° (W) 21:58:15 437.432
Oscar 11 04 Mar 22:01:55 22:05:13 21° 268° (W) 22:08:26 145.826/435.025
VERMONT LUNAR 04 Mar 22:03:01 22:03:47 10° 209° (SSW) 22:04:28 437.305
TIGRISAT 04 Mar 22:09:42 22:13:13 25° 94° (E) 22:16:50 435.000
50 SAT 04 Mar 22:10:52 22:14:50 77° 258° (WSW) 22:18:49 437.505
POPSAT HIP 1 04 Mar 22:19:02 22:21:53 18° 91° (E) 22:24:49 437.405
POLYITAN 1 04 Mar 22:19:38 22:22:32 18° 91° (E) 22:25:33 437.675
CINEMA 3 04 Mar 22:19:51 22:21:56 12° 273° (W) 22:23:46 145.822/145.860
PHONESAT 2.4 04 Mar 22:21:38 22:23:49 15° 206° (SSW) 22:25:57 2401.200-2431.200
CUBEBUG 2 04 Mar 22:24:10 22:27:13 17° 270° (W) 22:30:03 437.445
ANTELSAT 04 Mar 22:24:15 22:28:14 36° 97° (E) 22:32:17 437.575/2403.000
DX 1 04 Mar 22:29:55 22:33:20 21° 267° (W) 22:36:39 434.975-435.025
GONETS M04 04 Mar 22:32:53 22:41:29 63° 284° (WNW) 22:50:07
CUBEBUG 1 04 Mar 22:37:47 22:42:15 89° 76° (ENE) 22:46:44 437.445
HUMSAT D 04 Mar 22:38:10 22:41:51 28° 265° (W) 22:45:27 437.325/437.525
PCSat 04 Mar 22:40:05 22:43:35 17° 326° (NNW) 22:46:59 145.827
NANOSAT C BR1 04 Mar 22:40:42 22:44:24 29° 95° (E) 22:48:07 145.865
AISAT 04 Mar 22:42:40 22:46:51 36° 263° (W) 22:51:00 437.250
VELOX 1 04 Mar 22:51:19 22:55:19 31° 265° (W) 22:59:17 145.980
FUNcube-1 04 Mar 22:53:01 22:55:00 13° 272° (W) 22:56:45 145.935
ZACube-1 04 Mar 22:55:27 22:57:09 12° 273° (W) 22:58:36 437.345
TISAT 1 04 Mar 22:57:18 23:01:10 34° 69° (ENE) 23:05:04 437.305
UKube-1 04 Mar 22:58:38 23:00:20 12° 273° (W) 23:01:48 .
SPROUT 04 Mar 23:01:21 23:05:25 41° 71° (ENE) 23:09:32 437.525
DANDE 04 Mar 23:08:29 23:13:51 30° 96° (E) 23:18:11 436.750
BUGSAT 1 04 Mar 23:12:19 23:16:22 48° 99° (E) 23:20:21 437.445
QB50P1 04 Mar 23:13:49 23:18:03 69° 102° (ESE) 23:22:14 145.935-145.965
ESTCUBE 1 04 Mar 23:15:18 23:19:29 35° 264° (W) 23:23:40 437.505/2401.250
QB50P2 04 Mar 23:18:29 23:22:45 79° 103° (ESE) 23:26:57 145.880/145.840
UNISAT 6 04 Mar 23:21:57 23:26:10 55° 287° (WNW) 23:30:25 437.425
CUSAT 1 04 Mar 23:24:32 23:30:10 47° 98° (E) 23:34:28 437.405
DUCHIFAT 1 04 Mar 23:31:32 23:35:47 78° 285° (WNW) 23:39:58 145.980
BEESAT 3 04 Mar 23:32:38 23:34:36 13° 31° (NNE) 23:36:40 437.485
SWISSCUBE 04 Mar 23:39:12 23:42:39 21° 63° (ENE) 23:46:14 437.505
RS-15 04 Mar 23:44:44 23:55:40 87° 304° (NW) 00:06:51 29.354- 29.394
TIGRISAT 04 Mar 23:46:12 23:50:04 32° 291° (WNW) 23:53:54 435.000
BEESAT 04 Mar 23:47:11 23:50:48 22° 64° (ENE) 23:54:33 436.000
POPSAT HIP 1 04 Mar 23:54:00 23:58:03 44° 289° (WNW) 00:02:03 437.405
POLYITAN 1 04 Mar 23:54:42 23:58:44 43° 289° (WNW) 00:02:43 437.675
BEESAT 2 05 Mar 00:00:15 00:03:06 18° 36° (NE) 00:06:01 435.950
ANTELSAT 05 Mar 00:01:27 00:04:54 23° 294° (WNW) 00:08:17 437.575/2403.000
AIST 2 05 Mar 00:11:15 00:13:04 12° 29° (NNE) 00:14:59 435.215
ITUPSAT 1 05 Mar 00:15:07 00:19:32 39° 69° (ENE) 00:24:01 437.325
NANOSAT C BR1 05 Mar 00:16:38 00:20:13 27° 292° (WNW) 00:23:44 145.865
TISAT 1 05 Mar 00:33:34 00:37:05 23° 267° (W) 00:40:30 437.305
GONETS M04 05 Mar 00:36:07 00:40:40 14° 310° (NW) 00:44:43
YUBILEINY 05 Mar 00:37:17 00:40:11 12° 47° (NE) 00:43:39 435.215
SPROUT 05 Mar 00:38:28 00:41:45 20° 269° (W) 00:44:54 437.525
BUGSAT 1 05 Mar 00:48:45 00:51:32 17° 296° (WNW) 00:54:10 437.445
DANDE 05 Mar 00:51:21 00:57:10 38° 285° (WNW) 01:01:36 436.750
QB50P1 05 Mar 00:51:21 00:53:27 13° 298° (WNW) 00:55:23 145.935-145.965
QB50P2 05 Mar 00:56:27 00:58:06 12° 299° (WNW) 00:59:34 145.880/145.840
KKS-1 05 Mar 00:57:34 01:00:55 22° 65° (ENE) 01:04:22 437.445
STARS 05 Mar 00:59:25 01:01:53 15° 62° (ENE) 01:04:31 437.465
CUSAT 1 05 Mar 01:08:55 01:13:04 21° 288° (WNW) 01:16:23 437.405
BEESAT 3 05 Mar 01:09:22 01:13:31 68° 53° (NE) 01:17:35 437.485
SO-50 05 Mar 01:10:48 01:15:19 58° 121° (ESE) 01:20:01 436.795
SWISSCUBE 05 Mar 01:15:31 01:20:12 52° 260° (W) 01:24:54 437.505
BEESAT 05 Mar 01:23:47 01:28:24 47° 261° (W) 01:33:02 436.000
Gurwin Techsat 1B 05 Mar 01:34:24 01:37:32 16° 88° (E) 01:40:53 435.225
BEESAT 2 05 Mar 01:37:37 01:41:48 75° 237° (WSW) 01:45:54 435.950
Oscar 19 05 Mar 01:43:09 01:48:18 70° 103° (ESE) 01:53:25 437.125/150
ITAMSAT 1 05 Mar 01:47:19 01:51:40 27° 93° (E) 01:56:05 435.822/435.867
AIST 2 05 Mar 01:48:23 01:52:38 58° 51° (NE) 01:56:48 435.215
ITUPSAT 1 05 Mar 01:53:32 01:57:34 26° 266° (W) 02:01:33 437.325
RS-15 05 Mar 01:59:53 02:09:47 36° 334° (NNW) 02:19:51 29.354- 29.394
AO-7 05 Mar 02:28:41 02:30:38 11° 81° (E) 02:33:19 29.400- 29.500
MOZHAYETS 4 05 Mar 02:29:03 02:29:54 11° 59° (ENE) 02:31:00
YUBILEINY 05 Mar 02:31:07 02:39:45 54° 74° (ENE) 02:48:22 435.215
KKS-1 05 Mar 02:33:03 02:37:20 43° 262° (W) 02:41:37 437.445
STARS 05 Mar 02:33:30 02:37:55 64° 258° (WSW) 02:42:21 437.465
M-CUBED/EXP-1 PRIME 05 Mar 02:35:24 02:37:45 18° 60° (ENE) 02:40:17 437.505
AUBIESAT-1 05 Mar 02:35:27 02:37:37 17° 59° (ENE) 02:39:58 437.475
BEESAT 3 05 Mar 02:49:01 02:51:07 13° 249° (WSW) 02:53:03 437.485
HORYU 2 05 Mar 02:50:23 02:53:36 20° 92° (E) 02:56:57 437.375
SO-50 05 Mar 02:52:19 02:56:15 25° 322° (NW) 03:00:14 436.795
Gurwin Techsat 1B 05 Mar 03:12:51 03:18:10 72° 287° (WNW) 03:23:28 435.225
Oscar 19 05 Mar 03:23:44 03:27:10 18° 299° (WNW) 03:30:27 437.125/150
ITAMSAT 1 05 Mar 03:26:26 03:31:22 43° 292° (WNW) 03:36:15 435.822/435.867
AIST 2 05 Mar 03:28:03 03:30:51 17° 248° (WSW) 03:33:29 435.215
PCSat 05 Mar 03:56:40 04:01:18 28° 43° (NE) 04:05:58 145.827
MOZHAYETS 4 05 Mar 04:01:53 04:06:27 81° 74° (ENE) 04:11:03
AUBIESAT-1 05 Mar 04:09:12 04:12:18 34° 258° (WSW) 04:15:32 437.475
M-CUBED/EXP-1 PRIME 05 Mar 04:09:34 04:12:34 30° 258° (WSW) 04:15:41 437.505
JAS-2 05 Mar 04:10:30 04:17:43 50° 97° (E) 04:25:19 435.910
RS-15 05 Mar 04:17:09 04:26:21 28° 8° (N) 04:35:55 29.354- 29.394
AO-7 05 Mar 04:17:15 04:25:28 62° 103° (ESE) 04:33:39 29.400- 29.500
HORYU 2 05 Mar 04:26:17 04:30:32 44° 290° (WNW) 04:34:45 437.375
YUBILEINY 05 Mar 04:28:25 04:36:21 37° 274° (W) 04:44:05 435.215
CUBESAT XI-V 05 Mar 04:32:55 04:35:46 17° 62° (ENE) 04:38:48 437.345
Gurwin Techsat 1B 05 Mar 04:55:20 04:57:19 12° 304° (NW) 04:59:03 435.225
Cubesat XI-IV 05 Mar 05:33:59 05:38:03 22° 91° (E) 05:42:14 437.490
STRAND 1 05 Mar 05:38:26 05:43:18 45° 69° (ENE) 05:48:14 437.568
PCSat 05 Mar 05:39:45 05:45:05 57° 244° (WSW) 05:50:22 145.827
CUTE-I 05 Mar 05:41:59 05:46:21 26° 92° (E) 05:50:48 437.470
MOZHAYETS 4 05 Mar 05:42:56 05:44:24 11° 275° (W) 05:45:36
PRISM 05 Mar 05:46:42 05:50:52 86° 76° (ENE) 05:55:05 437.425
AIST 1 05 Mar 05:49:56 05:52:22 15° 85° (E) 05:54:57
JAS-2 05 Mar 05:55:47 06:02:39 41° 294° (WNW) 06:09:47 435.910
CUBESAT XI-V 05 Mar 06:08:06 06:12:46 65° 259° (W) 06:17:30 437.345
AO-7 05 Mar 06:10:35 06:17:56 36° 303° (WNW) 06:25:07 29.400- 29.500
RS-15 05 Mar 06:31:11 06:42:08 52° 40° (NE) 06:53:37 29.354- 29.394
GONETS M04 05 Mar 06:45:03 06:50:18 18° 54° (NE) 06:56:00
Cubesat XI-IV 05 Mar 07:13:17 07:18:32 54° 290° (WNW) 07:23:44 437.490
STRAND 1 05 Mar 07:18:30 07:22:45 25° 267° (W) 07:26:55 437.568
CUTE-I 05 Mar 07:21:33 07:26:42 47° 291° (WNW) 07:31:46 437.470
AIST 1 05 Mar 07:25:20 07:29:36 53° 282° (WNW) 07:33:57
O/OREOS (USA 219) 05 Mar 07:43:43 07:45:49 13° 99° (E) 07:48:09 437.305
SO-50 05 Mar 08:00:28 08:04:03 20° 34° (NE) 08:07:44 436.795
COMPASS 1 05 Mar 08:04:29 08:05:53 12° 87° (E) 08:07:30 437.405
GOMX 1 05 Mar 08:23:21 08:27:06 28° 94° (E) 08:30:45 467.674
ISS 05 Mar 08:26:00 08:29:09 55° 145° (SE) 08:32:19 145.825
HO-68 05 Mar 08:27:59 08:34:38 40° 97° (E) 08:41:21 435.675
BRITE-PL 05 Mar 08:32:10 08:36:37 53° 99° (E) 08:40:47 437.365/2234.400
SEEDS 05 Mar 08:34:08 08:37:50 29° 95° (E) 08:41:35 437.485
CINEMA 3 05 Mar 08:34:11 08:36:08 13° 88° (E) 08:38:17 145.822/145.860
GONETS M04 05 Mar 08:40:18 08:49:05 75° 79° (E) 08:57:53
CANX-2 05 Mar 08:41:31 08:45:37 45° 98° (E) 08:49:44 2200.000
RS-15 05 Mar 08:43:49 08:54:59 60° 244° (WSW) 09:06:31 29.354- 29.394
DOVE 4 05 Mar 08:45:06 08:48:56 32° 95° (E) 08:52:42 437.250
UNISAT 6 05 Mar 08:47:53 08:50:49 18° 65° (ENE) 08:53:51 437.425
DELFI C3 05 Mar 08:51:02 08:52:34 12° 88° (E) 08:54:19 145.870
DUCHIFAT 1 05 Mar 08:53:21 08:54:48 12° 61° (ENE) 08:56:27 145.980
CUTE 1.7 + AOD 2 05 Mar 08:59:37 09:03:52 66° 101° (E) 09:08:07 437.475
ZACube-1 05 Mar 09:05:07 09:06:01 11° 87° (E) 09:07:10 437.345
UKube-1 05 Mar 09:08:04 09:08:29 10° 86° (E) 09:09:11 .
TIGRISAT 05 Mar 09:10:41 09:14:25 29° 68° (ENE) 09:18:10 435.000
POPSAT HIP 1 05 Mar 09:14:13 09:17:13 19° 65° (ENE) 09:20:19 437.405
POLYITAN 1 05 Mar 09:15:03 09:18:07 20° 65° (ENE) 09:21:17 437.675
O/OREOS (USA 219) 05 Mar 09:20:09 09:24:42 69° 295° (WNW) 09:29:19 437.305
ANTELSAT 05 Mar 09:25:25 09:29:31 42° 71° (ENE) 09:33:37 437.575/2403.000
UWE-3 05 Mar 09:28:33 09:31:55 24° 94° (E) 09:35:21 435.000/436.395/437.385
AAUSAT CUBESAT 2 05 Mar 09:33:06 09:37:19 88° 284° (WNW) 09:41:31 437.432
NANOSAT C BR1 05 Mar 09:35:26 09:39:09 30° 69° (ENE) 09:42:56 145.865
COMPASS 1 05 Mar 09:37:57 09:42:08 68° 285° (WNW) 09:46:19 437.405
SO-50 05 Mar 09:40:20 09:45:19 90° 208° (SSW) 09:50:15 436.795
Oscar 11 05 Mar 09:45:53 09:50:11 61° 101° (E) 09:54:28 145.826/435.025
50 SAT 05 Mar 09:49:25 09:50:41 12° 88° (E) 09:52:11 437.505
GOMX 1 05 Mar 10:01:31 10:05:16 27° 293° (WNW) 10:08:48 467.674
CUSAT 1 05 Mar 10:01:49 10:03:48 19° 72° (ENE) 10:05:52 437.405
ISS 05 Mar 10:02:41 10:05:39 34° 344° (NNW) 10:08:39 145.825
BUGSAT 1 05 Mar 10:04:12 10:08:16 45° 72° (ENE) 10:12:23 437.445
QB50P1 05 Mar 10:08:25 10:12:40 67° 74° (ENE) 10:16:56 145.935-145.965
CINEMA 3 05 Mar 10:09:44 10:13:51 56° 287° (WNW) 10:17:54 145.822/145.860
SEEDS 05 Mar 10:10:00 10:13:37 27° 292° (WNW) 10:17:11 437.485
CUBEBUG 2 05 Mar 10:11:27 10:15:38 85° 103° (ESE) 10:19:49 437.445
BRITE-PL 05 Mar 10:11:47 10:14:44 17° 298° (WNW) 10:17:27 437.365/2234.400
QB50P2 05 Mar 10:13:16 10:17:32 77° 75° (ENE) 10:21:50 145.880/145.840
DX 1 05 Mar 10:15:02 10:19:21 56° 100° (E) 10:23:38 434.975-435.025
HO-68 05 Mar 10:15:41 10:22:29 45° 296° (WNW) 10:29:11 435.675
CANX-2 05 Mar 10:18:15 10:21:17 19° 295° (WNW) 10:24:13 2200.000
HUMSAT D 05 Mar 10:19:55 10:23:45 37° 97° (E) 10:27:36 437.325/437.525
UNISAT 6 05 Mar 10:23:06 10:27:20 48° 261° (W) 10:31:32 437.425
DOVE 4 05 Mar 10:23:11 10:26:38 24° 294° (WNW) 10:29:55 437.250
DELFI C3 05 Mar 10:24:12 10:28:16 63° 286° (WNW) 10:32:19 145.870
DUCHIFAT 1 05 Mar 10:25:49 10:30:06 81° 258° (WSW) 10:34:24 145.980
CUBEBUG 1 05 Mar 10:26:20 10:28:42 15° 89° (E) 10:31:13 437.445
AISAT 05 Mar 10:31:24 10:35:31 36° 97° (E) 10:39:36 437.250
FUNcube-1 05 Mar 10:36:30 10:40:40 77° 285° (WNW) 10:44:50 145.935
CUTE 1.7 + AOD 2 05 Mar 10:37:04 10:39:21 14° 297° (WNW) 10:41:28 437.475
GONETS M04 05 Mar 10:38:17 10:45:10 26° 279° (W) 10:51:47
ZACube-1 05 Mar 10:38:50 10:42:59 71° 285° (WNW) 10:47:08 437.345
VELOX 1 05 Mar 10:39:28 10:43:43 42° 98° (E) 10:47:56 145.980
UKube-1 05 Mar 10:40:57 10:45:20 81° 285° (WNW) 10:49:40 .
TIGRISAT 05 Mar 10:47:22 10:51:10 28° 265° (W) 10:54:54 435.000
POPSAT HIP 1 05 Mar 10:48:42 10:52:50 45° 261° (W) 10:56:58 437.405
POLYITAN 1 05 Mar 10:49:42 10:53:48 43° 262° (W) 10:57:54 437.675
RS-15 05 Mar 11:00:28 11:05:21 13° 263° (W) 11:09:11 29.354- 29.394
ANTELSAT 05 Mar 11:03:19 11:06:33 20° 268° (W) 11:09:40 437.575/2403.000
O/OREOS (USA 219) 05 Mar 11:03:42 11:05:08 11° 318° (NW) 11:06:23 437.305
UWE-3 05 Mar 11:04:50 11:08:33 31° 291° (WNW) 11:12:13 435.000/436.395/437.385
ESTCUBE 1 05 Mar 11:05:42 11:10:01 40° 97° (E) 11:14:19 437.505/2401.250
NANOSAT C BR1 05 Mar 11:11:22 11:15:03 27° 266° (W) 11:18:40 145.865
50 SAT 05 Mar 11:22:15 11:26:10 61° 286° (WNW) 11:30:04 437.505
SO-50 05 Mar 11:22:53 11:25:15 13° 251° (WSW) 11:27:22 436.795
Oscar 11 05 Mar 11:23:22 11:25:57 15° 297° (WNW) 11:28:24 145.826/435.025
Oscar 19 05 Mar 11:25:01 11:28:22 18° 61° (ENE) 11:31:53 437.125/150
DANDE 05 Mar 11:31:47 11:33:51 20° 266° (W) 11:35:52 436.750
ISS 05 Mar 11:39:53 11:42:37 25° 4° (N) 11:45:22 145.825
BUGSAT 1 05 Mar 11:41:02 11:44:03 18° 269° (W) 11:46:56 437.445
QB50P1 05 Mar 11:47:14 11:49:06 12° 272° (W) 11:50:45 145.935-145.965
CUBEBUG 2 05 Mar 11:50:56 11:51:47 10° 299° (WNW) 11:52:26 437.445
DX 1 05 Mar 11:52:24 11:55:13 17° 298° (WNW) 11:57:55 434.975-435.025
QB50P2 05 Mar 11:53:04 11:54:05 11° 274° (W) 11:54:51 145.880/145.840
HUMSAT D 05 Mar 11:56:13 11:59:21 21° 294° (WNW) 12:02:25 437.325/437.525
CUBEBUG 1 05 Mar 12:01:10 12:05:33 59° 287° (WNW) 12:09:50 437.445
HO-68 05 Mar 12:07:09 12:08:35 10° 316° (NW) 12:09:37 435.675
AISAT 05 Mar 12:08:20 12:12:00 25° 294° (WNW) 12:15:33 437.250
TISAT 1 05 Mar 12:15:26 12:19:31 46° 99° (E) 12:23:35 437.305
VELOX 1 05 Mar 12:16:38 12:20:03 22° 295° (WNW) 12:23:22 145.980
SPROUT 05 Mar 12:21:49 12:26:06 62° 101° (E) 12:30:20 437.525
ESTCUBE 1 05 Mar 12:43:03 12:46:42 23° 295° (WNW) 12:50:15 437.505/2401.250
Gurwin Techsat 1B 05 Mar 12:57:01 13:01:37 32° 66° (ENE) 13:06:20 435.225
Oscar 19 05 Mar 13:02:09 13:07:16 68° 259° (W) 13:12:24 437.125/150
ITAMSAT 1 05 Mar 13:07:04 13:12:05 50° 70° (ENE) 13:17:10 435.822/435.867
SWISSCUBE 05 Mar 13:13:58 13:18:21 34° 96° (E) 13:22:44 437.505
ISS 05 Mar 13:16:17 13:19:28 53° 24° (NNE) 13:22:38 145.825
BEESAT 05 Mar 13:21:58 13:26:26 38° 97° (E) 13:30:54 436.000
AO-7 05 Mar 13:28:16 13:34:35 26° 51° (NE) 13:41:06 29.400- 29.500
YUBILEINY 05 Mar 13:46:55 13:47:43 10° 71° (ENE) 13:49:17 435.215
HORYU 2 05 Mar 13:50:52 13:54:25 25° 66° (ENE) 13:58:03 437.375
ITUPSAT 1 05 Mar 13:51:03 13:55:53 71° 102° (ESE) 14:00:42 437.325
TISAT 1 05 Mar 13:52:04 13:55:02 18° 296° (WNW) 13:57:52 437.305
SPROUT 05 Mar 13:59:17 14:01:45 15° 298° (WNW) 14:04:06 437.525
STARS 05 Mar 14:22:10 14:25:22 20° 92° (E) 14:28:39 437.465
KKS-1 05 Mar 14:22:17 14:26:11 30° 95° (E) 14:30:07 437.445
JAS-2 05 Mar 14:26:39 14:31:06 24° 59° (ENE) 14:36:06 435.910
Gurwin Techsat 1B 05 Mar 14:36:36 14:41:33 38° 264° (W) 14:46:29 435.225
ITAMSAT 1 05 Mar 14:47:44 14:51:55 23° 268° (W) 14:55:59 435.822/435.867
SWISSCUBE 05 Mar 14:51:56 14:56:09 30° 294° (WNW) 15:00:16 437.505
ISS 05 Mar 14:52:58 14:55:41 25° 221° (SW) 14:58:22 145.825
BEESAT 05 Mar 15:00:06 15:04:10 27° 294° (WNW) 15:08:09 436.000
AO-7 05 Mar 15:18:10 15:26:32 87° 252° (WSW) 15:34:56 29.400- 29.500
HORYU 2 05 Mar 15:26:50 15:30:57 36° 263° (W) 15:35:02 437.375
ITUPSAT 1 05 Mar 15:30:16 15:33:17 16° 299° (WNW) 15:36:08 437.325
BEESAT 2 05 Mar 15:36:15 15:37:57 13° 110° (ESE) 15:39:51 435.950
